Retour au catalogue

FENGYUN 1C DEB

ActifSSO
NORAD 31724·DEBRIS·🇨🇳 China

Lancé May 10, 1999 depuis Taiyuan Satellite Launch Center

Loading…

Prochains Passages (prochaines 24 heures)

TLE

FraisSource: Space-Track

Époque: Sep 14, 2026, 17:34 UTC

1 31724U 99025CDX 26257.73237636  .00010803  00000-0  21812-2 0  9999
2 31724  97.8560 251.3516 0140517 103.6437 258.0454 14.55452513684998

Suivez FENGYUN 1C DEB en temps réel avec AllMySat

Download on the App Store